owner,sensor,date,latitude,longitude,vertical_datum,direction_of_sea_water_velocity,sea_water_speed,upward_sea_water_velocity,qcFlag 
TABS,ioos:station:wmo:42045:1,2002-11-01T00:00:00Z,26.2168,-96.4998,2.0,226.0060517,22.14292889,-99999.0,'11111222,11111222,99999999' 
TABS,ioos:station:wmo:42045:1,2002-11-01T00:30:00Z,26.2168,-96.4998,2.0,231.9470013,31.39268864,-99999.0,'11111222,11111222,99999999' 
TABS,ioos:station:wmo:42045:1,2002-11-01T01:00:00Z,26.2168,-96.4998,2.0,235.7855066,36.68940583,-99999.0,'11111222,11111222,99999999' 
TABS,ioos:station:wmo:42045:1,2002-11-01T01:30:00Z,26.2168,-96.4998,2.0,244.1485908,32.65807251,-99999.0,'11111222,11111222,99999999' 
TABS,ioos:station:wmo:42045:1,2002-11-01T02:00:00Z,26.2168,-96.4998,2.0,244.8450859,31.43075087,-99999.0,'11111222,11111222,99999999' 
TABS,ioos:station:wmo:42045:1,2002-11-01T02:30:00Z,26.2168,-96.4998,2.0,245.1738616,34.77346114,-99999.0,'11111222,11111222,99999999' 
TABS,ioos:station:wmo:42045:1,2002-11-01T03:00:00Z,26.2168,-96.4998,2.0,253.4320959,31.24724948,-99999.0,'11111222,11111222,99999999' 
TABS,ioos:station:wmo:42045:1,2002-11-01T03:30:00Z,26.2168,-96.4998,2.0,261.2046255,27.66529414,-99999.0,'11111222,11111222,99999999' 
TABS,ioos:station:wmo:42045:1,2002-11-01T04:00:00Z,26.2168,-96.4998,2.0,259.0246907,32.1988975,-99999.0,'11111222,11111222,99999999' 
TABS,ioos:station:wmo:42045:1,2002-11-01T04:30:00Z,26.2168,-96.4998,2.0,271.3536097,29.21814847,-99999.0,'11111222,11111222,99999999' 
TABS,ioos:station:wmo:42045:1,2002-11-01T05:00:00Z,26.2168,-96.4998,2.0,277.8464591,29.66773668,-99999.0,'11111222,11111222,99999999' 
TABS,ioos:station:wmo:42045:1,2002-11-01T05:30:00Z,26.2168,-96.4998,2.0,279.1668892,26.42748948,-99999.0,'11111222,11111222,99999999' 
TABS,ioos:station:wmo:42045:1,2002-11-01T06:00:00Z,26.2168,-96.4998,2.0,288.0477321,26.17793346,-99999.0,'11111222,11111222,99999999' 
TABS,ioos:station:wmo:42045:1,2002-11-01T06:30:00Z,26.2168,-96.4998,2.0,294.3379039,24.50793545,-99999.0,'11111222,11111222,99999999' 
TABS,ioos:station:wmo:42045:1,2002-11-01T07:00:00Z,26.2168,-96.4998,2.0,299.6330274,24.06774605,-99999.0,'11111222,11111222,99999999' 
TABS,ioos:station:wmo:42045:1,2002-11-01T07:30:00Z,26.2168,-96.4998,2.0,304.7108778,18.8433808,-99999.0,'11111222,11111222,99999999' 
TABS,ioos:station:wmo:42045:1,2002-11-01T08:00:00Z,26.2168,-96.4998,2.0,316.0666857,17.85753902,-99999.0,'11111222,11111222,99999999' 
TABS,ioos:station:wmo:42045:1,2002-11-01T08:30:00Z,26.2168,-96.4998,2.0,315.2969621,19.12042364,-99999.0,'11111222,11111222,99999999' 
TABS,ioos:station:wmo:42045:1,2002-11-01T09:00:00Z,26.2168,-96.4998,2.0,327.537508,15.66832793,-99999.0,'11111222,11111222,99999999' 
TABS,ioos:station:wmo:42045:1,2002-11-01T09:30:00Z,26.2168,-96.4998,2.0,341.9349489,14.70489714,-99999.0,'11111222,11111222,99999999' 
TABS,ioos:station:wmo:42045:1,2002-11-01T10:00:00Z,26.2168,-96.4998,2.0,353.247392,10.12020751,-99999.0,'11111222,11111222,99999999' 
TABS,ioos:station:wmo:42045:1,2002-11-01T10:30:00Z,26.2168,-96.4998,2.0,36.45517006,12.70633307,-99999.0,'11111222,11111222,99999999' 
TABS,ioos:station:wmo:42045:1,2002-11-01T11:00:00Z,26.2168,-96.4998,2.0,26.97299082,11.3103183,-99999.0,'11111222,11111222,99999999' 
TABS,ioos:station:wmo:42045:1,2002-11-01T11:30:00Z,26.2168,-96.4998,2.0,16.20734712,6.914802962,-99999.0,'11133222,11111222,99999999' 
TABS,ioos:station:wmo:42045:1,2002-11-01T12:00:00Z,26.2168,-96.4998,2.0,24.3543187,4.752946455,-99999.0,'11133222,11111222,99999999' 
TABS,ioos:station:wmo:42045:1,2002-11-01T12:30:00Z,26.2168,-96.4998,2.0,63.05112627,5.339850185,-99999.0,'11133222,11111222,99999999' 
TABS,ioos:station:wmo:42045:1,2002-11-01T13:00:00Z,26.2168,-96.4998,2.0,95.07809923,8.473257933,-99999.0,'11133222,11111222,99999999' 
TABS,ioos:station:wmo:42045:1,2002-11-01T13:30:00Z,26.2168,-96.4998,2.0,95.62902849,9.787195717,-99999.0,'11133222,11111222,99999999' 
TABS,ioos:station:wmo:42045:1,2002-11-01T14:00:00Z,26.2168,-96.4998,2.0,119.2461104,7.552761085,-99999.0,'11133222,11111222,99999999' 
TABS,ioos:station:wmo:42045:1,2002-11-01T14:30:00Z,26.2168,-96.4998,2.0,111.3760275,4.252540417,-99999.0,'11133222,11111222,99999999' 
TABS,ioos:station:wmo:42045:1,2002-11-01T15:00:00Z,26.2168,-96.4998,2.0,86.78779775,3.926168616,-99999.0,'11133222,11111222,99999999' 
TABS,ioos:station:wmo:42045:1,2002-11-01T15:30:00Z,26.2168,-96.4998,2.0,127.1892381,6.816105926,-99999.0,'11133222,11111222,99999999' 
TABS,ioos:station:wmo:42045:1,2002-11-01T16:00:00Z,26.2168,-96.4998,2.0,137.1486419,8.675229104,-99999.0,'11133222,11111222,99999999' 
TABS,ioos:station:wmo:42045:1,2002-11-01T16:30:00Z,26.2168,-96.4998,2.0,120.7735678,13.9549167,-99999.0,'11111222,11111222,99999999' 
TABS,ioos:station:wmo:42045:1,2002-11-01T17:00:00Z,26.2168,-96.4998,2.0,132.2115331,13.66333781,-99999.0,'11111222,11111222,99999999' 
TABS,ioos:station:wmo:42045:1,2002-11-01T17:30:00Z,26.2168,-96.4998,2.0,132.4456486,15.23207143,-99999.0,'11111222,11111222,99999999' 
TABS,ioos:station:wmo:42045:1,2002-11-01T18:00:00Z,26.2168,-96.4998,2.0,142.1027875,18.18492233,-99999.0,'11111222,11111222,99999999' 
TABS,ioos:station:wmo:42045:1,2002-11-01T18:30:00Z,26.2168,-96.4998,2.0,134.6142877,25.21599889,-99999.0,'11111222,11111222,99999999' 
TABS,ioos:station:wmo:42045:1,2002-11-01T19:00:00Z,26.2168,-96.4998,2.0,141.8091523,26.89714669,-99999.0,'11111222,11111222,99999999' 
TABS,ioos:station:wmo:42045:1,2002-11-01T19:30:00Z,26.2168,-96.4998,2.0,141.8687482,25.89627386,-99999.0,'11111222,11111222,99999999' 
TABS,ioos:station:wmo:42045:1,2002-11-01T20:00:00Z,26.2168,-96.4998,2.0,143.0028096,27.9340688,-99999.0,'11111222,11111222,99999999' 
TABS,ioos:station:wmo:42045:1,2002-11-01T20:30:00Z,26.2168,-96.4998,2.0,146.9186006,26.36361508,-99999.0,'11111222,11111222,99999999' 
TABS,ioos:station:wmo:42045:1,2002-11-01T21:00:00Z,26.2168,-96.4998,2.0,145.6951584,25.33738937,-99999.0,'11111222,11111222,99999999' 
TABS,ioos:station:wmo:42045:1,2002-11-01T22:00:00Z,26.2168,-96.4998,2.0,155.1049242,26.39234169,-99999.0,'11111222,11111222,99999999' 
TABS,ioos:station:wmo:42045:1,2002-11-01T22:30:00Z,26.2168,-96.4998,2.0,163.0781697,24.4276278,-99999.0,'11111222,11111222,99999999' 
TABS,ioos:station:wmo:42045:1,2002-11-01T23:00:00Z,26.2168,-96.4998,2.0,154.0746557,24.42832987,-99999.0,'11111222,11111222,99999999' 
TABS,ioos:station:wmo:42045:1,2002-11-01T23:30:00Z,26.2168,-96.4998,2.0,163.9162399,20.50249741,-99999.0,'11111222,11111222,99999999' 
TABS,ioos:station:wmo:42045:1,2002-11-02T00:00:00Z,26.2168,-96.4998,2.0,193.6104344,12.40846485,-99999.0,'11111222,11111222,99999999' 
TABS,ioos:station:wmo:42045:1,2002-11-02T01:00:00Z,26.2168,-96.4998,2.0,207.30245,15.63141068,-99999.0,'11111222,11111222,99999999' 
TABS,ioos:station:wmo:42045:1,2002-11-02T01:30:00Z,26.2168,-96.4998,2.0,208.1572968,15.44825233,-99999.0,'11111222,11111222,99999999' 
TABS,ioos:station:wmo:42045:1,2002-11-02T02:00:00Z,26.2168,-96.4998,2.0,217.2853908,19.01650073,-99999.0,'11111222,11111222,99999999' 
TABS,ioos:station:wmo:42045:1,2002-11-02T02:30:00Z,26.2168,-96.4998,2.0,223.8730506,19.06021249,-99999.0,'11111222,11111222,99999999' 
TABS,ioos:station:wmo:42045:1,2002-11-02T03:00:00Z,26.2168,-96.4998,2.0,232.4735116,17.28713394,-99999.0,'11111222,11111222,99999999' 
TABS,ioos:station:wmo:42045:1,2002-11-02T04:00:00Z,26.2168,-96.4998,2.0,238.4743081,16.44750437,-99999.0,'11111222,11111222,99999999' 
TABS,ioos:station:wmo:42045:1,2002-11-02T04:30:00Z,26.2168,-96.4998,2.0,256.0930103,22.50978898,-99999.0,'11111222,11111222,99999999' 
TABS,ioos:station:wmo:42045:1,2002-11-02T05:00:00Z,26.2168,-96.4998,2.0,269.3590731,17.89111791,-99999.0,'11111222,11111222,99999999' 
TABS,ioos:station:wmo:42045:1,2002-11-02T05:30:00Z,26.2168,-96.4998,2.0,265.5641443,19.13731434,-99999.0,'11111222,11111222,99999999' 
TABS,ioos:station:wmo:42045:1,2002-11-02T06:00:00Z,26.2168,-96.4998,2.0,271.0468004,19.7132874,-99999.0,'11111222,11111222,99999999' 
TABS,ioos:station:wmo:42045:1,2002-11-02T07:00:00Z,26.2168,-96.4998,2.0,265.4179266,20.65600639,-99999.0,'11111222,11111222,99999999' 
TABS,ioos:station:wmo:42045:1,2002-11-02T07:30:00Z,26.2168,-96.4998,2.0,261.8616395,20.62771921,-99999.0,'11111222,11111222,99999999' 
TABS,ioos:station:wmo:42045:1,2002-11-02T08:00:00Z,26.2168,-96.4998,2.0,258.8408486,19.32535123,-99999.0,'11111222,11111222,99999999' 
TABS,ioos:station:wmo:42045:1,2002-11-02T08:30:00Z,26.2168,-96.4998,2.0,263.6938057,18.39126967,-99999.0,'11111222,11111222,99999999' 
TABS,ioos:station:wmo:42045:1,2002-11-02T09:00:00Z,26.2168,-96.4998,2.0,267.3561759,20.38168786,-99999.0,'11111222,11111222,99999999' 
TABS,ioos:station:wmo:42045:1,2002-11-02T10:00:00Z,26.2168,-96.4998,2.0,271.705911,17.8078887,-99999.0,'11111222,11111222,99999999' 
TABS,ioos:station:wmo:42045:1,2002-11-02T10:30:00Z,26.2168,-96.4998,2.0,263.655623,16.7425237,-99999.0,'11111222,11111222,99999999' 
TABS,ioos:station:wmo:42045:1,2002-11-02T11:00:00Z,26.2168,-96.4998,2.0,259.8150413,12.78139273,-99999.0,'11111222,11111222,99999999' 
TABS,ioos:station:wmo:42045:1,2002-11-02T11:30:00Z,26.2168,-96.4998,2.0,246.6194577,14.08662486,-99999.0,'11111222,11111222,99999999' 
TABS,ioos:station:wmo:42045:1,2002-11-02T12:00:00Z,26.2168,-96.4998,2.0,258.4755261,15.21675721,-99999.0,'11111222,11111222,99999999' 
TABS,ioos:station:wmo:42045:1,2002-11-02T12:30:00Z,26.2168,-96.4998,2.0,250.4137996,14.16986238,-99999.0,'11111222,11111222,99999999' 
TABS,ioos:station:wmo:42045:1,2002-11-02T13:00:00Z,26.2168,-96.4998,2.0,265.7577966,11.76221918,-99999.0,'11111222,11111222,99999999' 
TABS,ioos:station:wmo:42045:1,2002-11-02T13:30:00Z,26.2168,-96.4998,2.0,267.7662229,13.60033088,-99999.0,'11111222,11111222,99999999' 
TABS,ioos:station:wmo:42045:1,2002-11-02T14:00:00Z,26.2168,-96.4998,2.0,269.0705419,11.10145936,-99999.0,'11111222,11111222,99999999' 
TABS,ioos:station:wmo:42045:1,2002-11-02T14:30:00Z,26.2168,-96.4998,2.0,274.1203073,10.71769565,-99999.0,'11111222,11111222,99999999' 
TABS,ioos:station:wmo:42045:1,2002-11-02T15:00:00Z,26.2168,-96.4998,2.0,273.4845122,12.01220213,-99999.0,'11111222,11111222,99999999' 
TABS,ioos:station:wmo:42045:1,2002-11-02T16:00:00Z,26.2168,-96.4998,2.0,279.0238055,8.798891976,-99999.0,'11133222,11111222,99999999' 
TABS,ioos:station:wmo:42045:1,2002-11-02T16:30:00Z,26.2168,-96.4998,2.0,257.1454918,3.056599418,-99999.0,'11133222,11111222,99999999' 
TABS,ioos:station:wmo:42045:1,2002-11-02T17:00:00Z,26.2168,-96.4998,2.0,315.0681212,5.975056485,-99999.0,'11133222,11111222,99999999' 
TABS,ioos:station:wmo:42045:1,2002-11-02T17:30:00Z,26.2168,-96.4998,2.0,331.0783467,11.74482013,-99999.0,'11111222,11111222,99999999' 
TABS,ioos:station:wmo:42045:1,2002-11-02T18:00:00Z,26.2168,-96.4998,2.0,349.7570552,7.479204503,-99999.0,'11133222,11111222,99999999' 
TABS,ioos:station:wmo:42045:1,2002-11-02T19:00:00Z,26.2168,-96.4998,2.0,38.37880707,6.684317467,-99999.0,'11133222,11111222,99999999' 
TABS,ioos:station:wmo:42045:1,2002-11-02T19:30:00Z,26.2168,-96.4998,2.0,53.27030659,8.996026901,-99999.0,'11133222,11111222,99999999' 
TABS,ioos:station:wmo:42045:1,2002-11-02T20:00:00Z,26.2168,-96.4998,2.0,65.45707025,8.618700598,-99999.0,'11133222,11111222,99999999' 
TABS,ioos:station:wmo:42045:1,2002-11-02T20:30:00Z,26.2168,-96.4998,2.0,82.99779113,10.41770128,-99999.0,'11111222,11111222,99999999' 
TABS,ioos:station:wmo:42045:1,2002-11-02T21:00:00Z,26.2168,-96.4998,2.0,97.02579064,15.04295516,-99999.0,'11111222,11111222,99999999' 
TABS,ioos:station:wmo:42045:1,2002-11-02T22:00:00Z,26.2168,-96.4998,2.0,112.6993919,23.81463836,-99999.0,'11111222,11111222,99999999' 
TABS,ioos:station:wmo:42045:1,2002-11-02T22:30:00Z,26.2168,-96.4998,2.0,114.9589113,30.47616282,-99999.0,'11111222,11111222,99999999' 
TABS,ioos:station:wmo:42045:1,2002-11-02T23:00:00Z,26.2168,-96.4998,2.0,120.7104281,31.42742274,-99999.0,'11111222,11111222,99999999' 
TABS,ioos:station:wmo:42045:1,2002-11-02T23:30:00Z,26.2168,-96.4998,2.0,131.5924213,27.83851289,-99999.0,'11111222,11111222,99999999' 
TABS,ioos:station:wmo:42045:1,2002-11-03T00:00:00Z,26.2168,-96.4998,2.0,156.5898624,17.79476889,-99999.0,'11111222,11111222,99999999' 
TABS,ioos:station:wmo:42045:1,2002-11-03T01:00:00Z,26.2168,-96.4998,2.0,159.4249389,42.68256787,-99999.0,'11111222,11111222,99999999' 
TABS,ioos:station:wmo:42045:1,2002-11-03T01:30:00Z,26.2168,-96.4998,2.0,170.995415,40.31685132,-99999.0,'11111222,11111222,99999999' 
TABS,ioos:station:wmo:42045:1,2002-11-03T02:00:00Z,26.2168,-96.4998,2.0,170.928762,42.36989497,-99999.0,'11111222,11111222,99999999' 
TABS,ioos:station:wmo:42045:1,2002-11-03T02:30:00Z,26.2168,-96.4998,2.0,175.6029354,47.74050272,-99999.0,'11111222,11111222,99999999' 
TABS,ioos:station:wmo:42045:1,2002-11-03T03:00:00Z,26.2168,-96.4998,2.0,180.0343189,49.78000904,-99999.0,'11111222,11111222,99999999' 
TABS,ioos:station:wmo:42045:1,2002-11-03T03:30:00Z,26.2168,-96.4998,2.0,180.4520226,49.41153914,-99999.0,'11111222,11111222,99999999' 
TABS,ioos:station:wmo:42045:1,2002-11-03T04:00:00Z,26.2168,-96.4998,2.0,179.9222058,59.08005416,-99999.0,'11111222,11111222,99999999' 
TABS,ioos:station:wmo:42045:1,2002-11-03T04:30:00Z,26.2168,-96.4998,2.0,180.7079707,65.53500591,-99999.0,'11111222,11111222,99999999' 
TABS,ioos:station:wmo:42045:1,2002-11-03T05:00:00Z,26.2168,-96.4998,2.0,187.6715789,63.29656705,-99999.0,'11111222,11111222,99999999' 
TABS,ioos:station:wmo:42045:1,2002-11-03T05:30:00Z,26.2168,-96.4998,2.0,186.069134,62.61095751,-99999.0,'11111222,11111222,99999999' 
TABS,ioos:station:wmo:42045:1,2002-11-03T06:00:00Z,26.2168,-96.4998,2.0,185.6745763,63.71224372,-99999.0,'11111222,11111222,99999999' 
TABS,ioos:station:wmo:42045:1,2002-11-03T07:00:00Z,26.2168,-96.4998,2.0,191.8413571,56.43092503,-99999.0,'11111222,11111222,99999999' 
TABS,ioos:station:wmo:42045:1,2002-11-03T07:30:00Z,26.2168,-96.4998,2.0,193.284482,54.17984312,-99999.0,'11111222,11111222,99999999' 
TABS,ioos:station:wmo:42045:1,2002-11-03T08:00:00Z,26.2168,-96.4998,2.0,193.7546291,51.8571673,-99999.0,'11111222,11111222,99999999' 
TABS,ioos:station:wmo:42045:1,2002-11-03T08:30:00Z,26.2168,-96.4998,2.0,197.1071664,53.91549406,-99999.0,'11111222,11111222,99999999' 
TABS,ioos:station:wmo:42045:1,2002-11-03T09:00:00Z,26.2168,-96.4998,2.0,193.917009,52.55273256,-99999.0,'11111222,11111222,99999999' 
TABS,ioos:station:wmo:42045:1,2002-11-03T10:00:00Z,26.2168,-96.4998,2.0,190.9158131,48.21236874,-99999.0,'11111222,11111222,99999999' 
TABS,ioos:station:wmo:42045:1,2002-11-03T10:30:00Z,26.2168,-96.4998,2.0,186.3578623,45.96270771,-99999.0,'11111222,11111222,99999999' 
TABS,ioos:station:wmo:42045:1,2002-11-03T11:00:00Z,26.2168,-96.4998,2.0,191.211904,43.66335993,-99999.0,'11111222,11111222,99999999' 
TABS,ioos:station:wmo:42045:1,2002-11-03T11:30:00Z,26.2168,-96.4998,2.0,191.2005611,38.09562836,-99999.0,'11111222,11111222,99999999' 
TABS,ioos:station:wmo:42045:1,2002-11-03T12:00:00Z,26.2168,-96.4998,2.0,187.7299481,18.43755136,-99999.0,'11111222,11111222,99999999' 
TABS,ioos:station:wmo:42045:1,2002-11-03T13:00:00Z,26.2168,-96.4998,2.0,190.2243869,37.68851549,-99999.0,'11111222,11111222,99999999' 
TABS,ioos:station:wmo:42045:1,2002-11-03T13:30:00Z,26.2168,-96.4998,2.0,186.820702,36.45804301,-99999.0,'11111222,11111222,99999999' 
TABS,ioos:station:wmo:42045:1,2002-11-03T14:00:00Z,26.2168,-96.4998,2.0,192.2809487,32.62664555,-99999.0,'11111222,11111222,99999999' 
TABS,ioos:station:wmo:42045:1,2002-11-03T14:30:00Z,26.2168,-96.4998,2.0,184.8840293,30.77174028,-99999.0,'11111222,11111222,99999999' 
TABS,ioos:station:wmo:42045:1,2002-11-03T15:00:00Z,26.2168,-96.4998,2.0,188.036645,28.68170323,-99999.0,'11111222,11111222,99999999' 
TABS,ioos:station:wmo:42045:1,2002-11-03T16:00:00Z,26.2168,-96.4998,2.0,206.3227426,19.05594133,-99999.0,'11111222,11111222,99999999' 
TABS,ioos:station:wmo:42045:1,2002-11-03T16:30:00Z,26.2168,-96.4998,2.0,231.6367842,16.27352451,-99999.0,'11111222,11111222,99999999' 
TABS,ioos:station:wmo:42045:1,2002-11-03T17:00:00Z,26.2168,-96.4998,2.0,229.2810251,11.65027467,-99999.0,'11111222,11111222,99999999' 
TABS,ioos:station:wmo:42045:1,2002-11-03T17:30:00Z,26.2168,-96.4998,2.0,247.0777097,5.982390826,-99999.0,'11133222,11111222,99999999' 
TABS,ioos:station:wmo:42045:1,2002-11-03T18:00:00Z,26.2168,-96.4998,2.0,273.7957994,4.078945942,-99999.0,'11133222,11111222,99999999' 
TABS,ioos:station:wmo:42045:1,2002-11-03T19:00:00Z,26.2168,-96.4998,2.0,33.12213068,3.916375876,-99999.0,'11133222,11111222,99999999' 
TABS,ioos:station:wmo:42045:1,2002-11-03T19:30:00Z,26.2168,-96.4998,2.0,56.93567986,7.111680533,-99999.0,'11133222,11111222,99999999' 
TABS,ioos:station:wmo:42045:1,2002-11-03T20:00:00Z,26.2168,-96.4998,2.0,85.48009945,7.61367848,-99999.0,'11133222,11111222,99999999' 
TABS,ioos:station:wmo:42045:1,2002-11-03T20:30:00Z,26.2168,-96.4998,2.0,92.22731646,11.57874777,-99999.0,'11111222,11111222,99999999' 
TABS,ioos:station:wmo:42045:1,2002-11-03T21:00:00Z,26.2168,-96.4998,2.0,92.16898774,16.38173678,-99999.0,'11111222,11111222,99999999' 
TABS,ioos:station:wmo:42045:1,2002-11-03T22:00:00Z,26.2168,-96.4998,2.0,125.1505287,22.19799315,-99999.0,'11111222,11111222,99999999' 
TABS,ioos:station:wmo:42045:1,2002-11-03T22:30:00Z,26.2168,-96.4998,2.0,131.6994568,27.38924789,-99999.0,'11111222,11111222,99999999' 
TABS,ioos:station:wmo:42045:1,2002-11-03T23:00:00Z,26.2168,-96.4998,2.0,133.8422485,25.89953668,-99999.0,'11111222,11111222,99999999' 
TABS,ioos:station:wmo:42045:1,2002-11-03T23:30:00Z,26.2168,-96.4998,2.0,140.6009173,27.96523914,-99999.0,'11111222,11111222,99999999' 
TABS,ioos:station:wmo:42045:1,2002-11-04T00:00:00Z,26.2168,-96.4998,2.0,108.7423241,9.43004772,-99999.0,'11133222,11111222,99999999' 
TABS,ioos:station:wmo:42045:1,2002-11-04T01:00:00Z,26.2168,-96.4998,2.0,133.3987902,41.75681621,-99999.0,'11111222,11111222,99999999' 
TABS,ioos:station:wmo:42045:1,2002-11-04T01:30:00Z,26.2168,-96.4998,2.0,139.1289986,43.79874427,-99999.0,'11111222,11111222,99999999' 
TABS,ioos:station:wmo:42045:1,2002-11-04T02:00:00Z,26.2168,-96.4998,2.0,144.5156866,44.82510904,-99999.0,'11111222,11111222,99999999' 
TABS,ioos:station:wmo:42045:1,2002-11-04T02:30:00Z,26.2168,-96.4998,2.0,140.5872207,46.11740778,-99999.0,'11111222,11111222,99999999' 
TABS,ioos:station:wmo:42045:1,2002-11-04T03:00:00Z,26.2168,-96.4998,2.0,142.5208201,42.13838155,-99999.0,'11111222,11111222,99999999' 
TABS,ioos:station:wmo:42045:1,2002-11-04T04:00:00Z,26.2168,-96.4998,2.0,153.4934449,34.95423293,-99999.0,'11111222,11111222,99999999' 
TABS,ioos:station:wmo:42045:1,2002-11-04T04:30:00Z,26.2168,-96.4998,2.0,160.7733897,26.78388508,-99999.0,'11111222,11111222,99999999' 
TABS,ioos:station:wmo:42045:1,2002-11-04T05:00:00Z,26.2168,-96.4998,2.0,166.1264995,26.44134074,-99999.0,'11111222,11111222,99999999' 
TABS,ioos:station:wmo:42045:1,2002-11-04T05:30:00Z,26.2168,-96.4998,2.0,159.8376373,31.15943035,-99999.0,'11111222,11111222,99999999' 
TABS,ioos:station:wmo:42045:1,2002-11-04T06:00:00Z,26.2168,-96.4998,2.0,168.7652595,34.28701358,-99999.0,'11111222,11111222,99999999' 
TABS,ioos:station:wmo:42045:1,2002-11-04T07:00:00Z,26.2168,-96.4998,2.0,167.5769416,34.02668512,-99999.0,'11111222,11111222,99999999' 
TABS,ioos:station:wmo:42045:1,2002-11-04T07:30:00Z,26.2168,-96.4998,2.0,165.6527704,33.97974102,-99999.0,'11111222,11111222,99999999' 
TABS,ioos:station:wmo:42045:1,2002-11-04T08:00:00Z,26.2168,-96.4998,2.0,163.8418413,31.83765067,-99999.0,'11111222,11111222,99999999' 
TABS,ioos:station:wmo:42045:1,2002-11-04T08:30:00Z,26.2168,-96.4998,2.0,170.8247615,30.16594935,-99999.0,'11111222,11111222,99999999' 
TABS,ioos:station:wmo:42045:1,2002-11-04T09:00:00Z,26.2168,-96.4998,2.0,167.4200084,31.68053661,-99999.0,'11111222,11111222,99999999' 
TABS,ioos:station:wmo:42045:1,2002-11-04T10:00:00Z,26.2168,-96.4998,2.0,167.1314471,31.29602211,-99999.0,'11111222,11111222,99999999' 
TABS,ioos:station:wmo:42045:1,2002-11-04T10:30:00Z,26.2168,-96.4998,2.0,172.9639513,30.28807851,-99999.0,'11111222,11111222,99999999' 
TABS,ioos:station:wmo:42045:1,2002-11-04T11:00:00Z,26.2168,-96.4998,2.0,181.5375583,31.30127314,-99999.0,'11111222,11111222,99999999' 
TABS,ioos:station:wmo:42045:1,2002-11-04T11:30:00Z,26.2168,-96.4998,2.0,180.2584589,26.58027088,-99999.0,'11111222,11111222,99999999' 
TABS,ioos:station:wmo:42045:1,2002-11-04T12:00:00Z,26.2168,-96.4998,2.0,176.3036562,7.756133057,-99999.0,'11133222,11111222,99999999' 
TABS,ioos:station:wmo:42045:1,2002-11-04T13:00:00Z,26.2168,-96.4998,2.0,161.8310981,24.50159179,-99999.0,'11111222,11111222,99999999' 
TABS,ioos:station:wmo:42045:1,2002-11-04T13:30:00Z,26.2168,-96.4998,2.0,164.9590424,22.27304425,-99999.0,'11111222,11111222,99999999' 
TABS,ioos:station:wmo:42045:1,2002-11-04T14:00:00Z,26.2168,-96.4998,2.0,172.8073832,15.8144396,-99999.0,'11111222,11111222,99999999' 
TABS,ioos:station:wmo:42045:1,2002-11-04T14:30:00Z,26.2168,-96.4998,2.0,174.3214436,17.68678885,-99999.0,'11111222,11111222,99999999' 
TABS,ioos:station:wmo:42045:1,2002-11-04T15:00:00Z,26.2168,-96.4998,2.0,173.273105,15.87931044,-99999.0,'11111222,11111222,99999999' 
TABS,ioos:station:wmo:42045:1,2002-11-04T16:00:00Z,26.2168,-96.4998,2.0,179.9555458,12.95000386,-99999.0,'11111222,11111222,99999999' 
TABS,ioos:station:wmo:42045:1,2002-11-04T16:30:00Z,26.2168,-96.4998,2.0,191.8884198,9.319914163,-99999.0,'11133222,11111222,99999999' 
TABS,ioos:station:wmo:42045:1,2002-11-04T17:00:00Z,26.2168,-96.4998,2.0,177.9543858,7.564819892,-99999.0,'11133222,11111222,99999999' 
TABS,ioos:station:wmo:42045:1,2002-11-04T17:30:00Z,26.2168,-96.4998,2.0,191.1776782,3.404585144,-99999.0,'11133222,11111222,99999999' 
TABS,ioos:station:wmo:42045:1,2002-11-04T18:00:00Z,26.2168,-96.4998,2.0,171.557684,4.155021059,-99999.0,'11133222,11111222,99999999' 
TABS,ioos:station:wmo:42045:1,2002-11-04T19:00:00Z,26.2168,-96.4998,2.0,138.1258506,19.191149,-99999.0,'11111222,11111222,99999999' 
TABS,ioos:station:wmo:42045:1,2002-11-04T19:30:00Z,26.2168,-96.4998,2.0,131.5043893,24.7027711,-99999.0,'11111222,11111222,99999999' 
TABS,ioos:station:wmo:42045:1,2002-11-04T20:00:00Z,26.2168,-96.4998,2.0,137.4672201,22.1742125,-99999.0,'11111222,11111222,99999999' 
TABS,ioos:station:wmo:42045:1,2002-11-04T20:30:00Z,26.2168,-96.4998,2.0,143.7771953,23.72551369,-99999.0,'11111222,11111222,99999999' 
TABS,ioos:station:wmo:42045:1,2002-11-04T21:00:00Z,26.2168,-96.4998,2.0,142.5536447,22.26912661,-99999.0,'11111222,11111222,99999999' 
TABS,ioos:station:wmo:42045:1,2002-11-04T22:00:00Z,26.2168,-96.4998,2.0,149.283223,40.95595805,-99999.0,'11111222,11111222,99999999' 
TABS,ioos:station:wmo:42045:1,2002-11-04T22:30:00Z,26.2168,-96.4998,2.0,152.1953137,38.86748384,-99999.0,'11111222,11111222,99999999' 
TABS,ioos:station:wmo:42045:1,2002-11-04T23:00:00Z,26.2168,-96.4998,2.0,148.7073446,55.29376909,-99999.0,'11111222,11111222,99999999' 
TABS,ioos:station:wmo:42045:1,2002-11-04T23:30:00Z,26.2168,-96.4998,2.0,149.7102704,53.49239666,-99999.0,'11111222,11111222,99999999' 
TABS,ioos:station:wmo:42045:1,2002-11-05T00:00:00Z,26.2168,-96.4998,2.0,149.2709376,26.36126894,-99999.0,'11111222,11111222,99999999' 
TABS,ioos:station:wmo:42045:1,2002-11-05T01:00:00Z,26.2168,-96.4998,2.0,153.4066003,72.69010662,-99999.0,'11111222,11111222,99999999' 
TABS,ioos:station:wmo:42045:1,2002-11-05T01:30:00Z,26.2168,-96.4998,2.0,156.2050641,75.96751016,-99999.0,'11111222,11111222,99999999' 
TABS,ioos:station:wmo:42045:1,2002-11-05T02:00:00Z,26.2168,-96.4998,2.0,156.8299822,73.32414745,-99999.0,'11111222,11111222,99999999' 
TABS,ioos:station:wmo:42045:1,2002-11-05T02:30:00Z,26.2168,-96.4998,2.0,163.0139489,73.9039275,-99999.0,'11111222,11111222,99999999' 
TABS,ioos:station:wmo:42045:1,2002-11-05T03:00:00Z,26.2168,-96.4998,2.0,163.1286839,78.21644648,-99999.0,'11111222,11111222,99999999' 
TABS,ioos:station:wmo:42045:1,2002-11-05T04:00:00Z,26.2168,-96.4998,2.0,169.3485883,79.15378071,-99999.0,'11111222,11111222,99999999' 
TABS,ioos:station:wmo:42045:1,2002-11-05T04:30:00Z,26.2168,-96.4998,2.0,170.5099711,78.72739612,-99999.0,'11111222,11111222,99999999' 